Simultaneous Nadir Overpasses (SNOs) Predictions

Prediction of SNOs between GOES-17 and AQUA Satellite Orbit:

Table of predicted SNOs for the next 14.0 days since TLE Epoch: 2/26/2021
Index Date Time (GOES-17) GOES-17 Lat,Lon AQUA Lat,Lon Distance(km) Time Diff (sec)
1 02/26/2021 22:52:05 0.04,-137.21 -0.43,-139.40 249.05 80
2 02/28/2021 22:42:34 0.04,-137.22 0.22,-136.45 88.23 80
3 03/01/2021 11:03:49 -0.04,-137.22 0.87,-141.60 497.72 80
4 03/02/2021 22:30:22 0.04,-137.22 0.82,-133.48 424.75 80
5 03/03/2021 10:51:38 -0.04,-137.22 0.27,-138.64 161.40 80
6 03/05/2021 10:36:47 -0.04,-137.21 -0.39,-135.69 174.17 80
7 03/05/2021 22:58:09 0.03,-137.20 -0.75,-140.87 416.69 80
8 03/07/2021 22:45:57 0.02,-137.19 -0.15,-137.90 81.93 80
9 03/09/2021 22:36:25 0.01,-137.16 0.46,-134.94 252.65 80
10 03/10/2021 10:57:41 -0.01,-137.16 0.63,-140.10 333.76 80
11 03/12/2021 10:45:29 -0.00,-137.14 0.02,-137.13 2.56 80
